Total_Precipitation_Accumulation
0.25 0.38 0.86 1.03 1.12 1.16 1.14 1.08 0.97 0.89 0.90 1.04 1.08 1.04 0.95 0.88 0.87 0.86 0.83 0.83 0.91 1.12 1.23 1.27 1.19 1.13 1.04 0.95 0.83 0.63 0.55 0.47 0.45 0.42 0.41 0.47 0.54 0.56 0.46 0.43 0.49 0.48 0.62
0.24 0.34 0.78 1.08 1.20 1.22 1.21 1.12 0.97 0.85 0.88 0.97 1.10 1.12 1.10 0.99 0.89 0.90 0.91 0.90 1.06 1.22 1.27 1.29 1.14 1.03 0.92 0.77 0.61 0.46 0.38 0.28 0.24 0.20 0.17 0.24 0.40 0.51 0.45 0.43 0.49 0.59 0.64
0.29 0.40 0.71 1.09 1.28 1.32 1.29 1.20 1.03 0.88 0.90 0.90 1.05 1.14 1.19 1.14 1.08 1.05 1.03 1.05 1.16 1.20 1.18 1.15 1.08 0.95 0.76 0.61 0.48 0.36 0.28 0.20 0.16 0.13 0.15 0.24 0.35 0.53 0.54 0.50 0.54 0.67 0.64
0.35 0.49 0.74 1.14 1.36 1.40 1.28 1.19 1.08 0.97 0.89 0.88 0.93 1.04 1.17 1.23 1.26 1.20 1.16 1.16 1.15 1.11 1.08 1.03 0.87 0.77 0.65 0.49 0.41 0.36 0.25 0.18 0.14 0.14 0.20 0.28 0.35 0.69 0.80 0.69 0.64 0.67 0.62
0.43 0.60 0.91 1.30 1.47 1.48 1.38 1.31 1.21 1.05 0.91 0.90 0.94 0.94 1.05 1.17 1.30 1.41 1.38 1.28 1.17 1.01 0.96 0.93 0.78 0.69 0.62 0.52 0.43 0.37 0.29 0.20 0.13 0.16 0.26 0.34 0.48 0.92 0.92 0.81 0.74 0.70 0.63
0.60 0.82 1.07 1.38 1.51 1.50 1.46 1.42 1.37 1.17 1.04 1.08 1.07 1.00 1.03 1.10 1.23 1.40 1.43 1.29 1.13 0.99 0.98 0.87 0.76 0.69 0.62 0.54 0.48 0.40 0.32 0.20 0.14 0.19 0.28 0.35 0.51 0.94 0.91 0.78 0.77 0.76 0.72
0.83 1.02 1.21 1.44 1.58 1.55 1.53 1.52 1.48 1.41 1.32 1.27 1.21 1.12 1.10 1.10 1.15 1.22 1.22 1.11 1.05 0.99 0.96 0.94 0.83 0.75 0.68 0.56 0.51 0.42 0.33 0.19 0.15 0.23 0.28 0.36 0.57 0.90 0.90 0.79 0.80 0.82 0.80
1.11 1.27 1.40 1.61 1.73 1.67 1.58 1.52 1.53 1.60 1.56 1.49 1.42 1.33 1.22 1.21 1.19 1.12 1.06 0.97 0.96 0.98 0.98 0.96 0.88 0.78 0.71 0.60 0.52 0.47 0.33 0.16 0.15 0.18 0.23 0.35 0.57 0.85 0.87 0.78 0.79 0.83 0.84
1.50 1.64 1.79 1.82 1.76 1.77 1.72 1.66 1.59 1.62 1.66 1.68 1.58 1.50 1.35 1.29 1.23 1.09 0.99 0.98 0.95 0.93 0.93 0.91 0.90 0.79 0.70 0.61 0.51 0.44 0.30 0.17 0.16 0.19 0.22 0.33 0.58 0.94 0.96 0.84 0.77 0.76 0.79
1.99 2.07 2.18 2.20 2.03 1.92 1.81 1.77 1.71 1.65 1.74 1.79 1.67 1.42 1.23 1.19 1.20 1.09 0.89 0.94 1.00 0.93 0.89 0.84 0.85 0.83 0.68 0.57 0.49 0.43 0.30 0.20 0.18 0.20 0.26 0.34 0.58 0.92 0.97 0.85 0.82 0.79 0.80
2.45 2.44 2.41 2.46 2.41 2.27 2.11 1.89 1.87 1.82 1.82 1.76 1.63 1.43 1.31 1.28 1.17 1.04 0.79 0.74 0.89 0.89 0.85 0.81 0.79 0.80 0.67 0.54 0.49 0.39 0.29 0.22 0.23 0.27 0.28 0.42 0.69 0.86 0.94 0.89 0.86 0.85 0.87
2.59 2.66 2.62 2.61 2.62 2.54 2.36 2.23 2.10 1.93 1.89 1.77 1.53 1.41 1.41 1.33 1.23 1.04 0.88 0.77 0.84 0.87 0.90 0.88 0.80 0.76 0.67 0.54 0.54 0.47 0.35 0.28 0.27 0.29 0.33 0.48 0.72 0.85 0.89 0.90 0.91 0.89 0.89
2.83 2.98 2.97 2.91 2.97 3.00 2.78 2.51 2.39 2.15 1.95 1.93 1.69 1.54 1.46 1.51 1.48 1.37 1.15 0.99 0.98 0.90 0.89 0.90 0.82 0.64 0.55 0.50 0.49 0.44 0.40 0.36 0.31 0.31 0.39 0.45 0.66 0.85 0.87 0.91 0.93 0.95 1.01
3.00 3.20 3.43 3.36 3.30 3.31 3.10 2.80 2.56 2.37 2.12 2.00 1.94 1.78 1.65 1.59 1.51 1.44 1.24 1.05 1.00 0.89 0.85 0.92 0.84 0.66 0.59 0.51 0.51 0.50 0.47 0.42 0.36 0.36 0.40 0.42 0.54 0.80 0.95 1.06 1.04 0.98 1.08
2.86 3.18 3.55 3.54 3.43 3.33 3.17 2.92 2.62 2.49 2.31 2.15 2.19 2.12 1.90 1.73 1.63 1.56 1.48 1.27 1.14 1.00 0.87 0.87 0.94 0.83 0.77 0.70 0.60 0.54 0.52 0.47 0.42 0.39 0.39 0.42 0.47 0.69 0.90 1.03 1.08 1.13 1.18
2.86 3.05 3.40 3.53 3.41 3.35 3.19 2.93 2.63 2.41 2.31 2.27 2.13 2.05 2.05 1.88 1.77 1.74 1.62 1.43 1.28 1.13 0.97 0.88 0.91 0.95 0.90 0.84 0.75 0.67 0.64 0.58 0.49 0.45 0.40 0.42 0.47 0.55 0.75 0.89 1.00 1.16 1.35
2.89 3.11 3.24 3.46 3.55 3.37 3.29 3.01 2.69 2.58 2.38 2.25 2.15 1.99 1.99 1.97 1.88 1.88 1.77 1.54 1.41 1.36 1.23 1.13 1.11 1.10 1.00 0.87 0.75 0.73 0.72 0.65 0.58 0.54 0.48 0.45 0.45 0.49 0.64 0.82 0.93 1.10 1.32
2.93 3.17 3.23 3.30 3.44 3.42 3.35 3.24 2.82 2.59 2.52 2.34 2.24 2.11 1.99 2.00 2.03 2.05 1.94 1.71 1.70 1.76 1.62 1.42 1.33 1.24 1.08 0.97 0.85 0.81 0.76 0.71 0.61 0.57 0.55 0.49 0.46 0.47 0.60 0.81 0.91 1.02 1.18
2.84 3.12 3.31 3.31 3.34 3.52 3.51 3.47 3.31 2.93 2.58 2.53 2.49 2.25 1.99 1.95 2.01 2.02 2.01 1.92 1.94 1.98 1.90 1.72 1.59 1.50 1.30 1.17 1.05 0.99 0.97 0.91 0.82 0.71 0.64 0.64 0.60 0.59 0.73 0.93 1.01 1.01 1.03
2.83 3.07 3.31 3.34 3.31 3.58 3.81 3.73 3.59 3.35 2.82 2.50 2.45 2.32 2.14 2.01 1.97 1.96 1.93 2.04 2.10 2.07 2.01 1.95 1.81 1.72 1.61 1.50 1.40 1.23 1.18 1.14 1.00 0.82 0.72 0.71 0.72 0.74 0.85 0.93 0.97 1.03 1.05
2.73 2.94 3.15 3.26 3.24 3.32 3.54 3.54 3.37 3.16 2.94 2.58 2.38 2.34 2.28 2.19 2.19 2.11 1.95 2.02 2.16 2.04 1.91 1.98 2.04 2.03 1.95 1.83 1.76 1.56 1.40 1.27 1.14 0.90 0.75 0.73 0.75 0.80 0.85 0.90 0.95 0.87 0.76
2.39 2.76 2.98 3.17 3.33 3.21 3.09 3.21 3.27 3.24 3.10 2.87 2.64 2.55 2.37 2.25 2.20 2.21 2.19 2.14 2.24 2.23 2.13 2.07 2.13 2.21 2.14 2.11 2.06 1.95 1.71 1.52 1.26 1.00 0.83 0.76 0.76 0.81 0.83 0.84 0.85 0.83 0.71
2.07 2.41 2.69 2.91 3.17 3.30 3.24 3.35 3.40 3.36 3.20 2.97 2.71 2.56 2.42 2.34 2.28 2.20 2.23 2.28 2.29 2.33 2.25 2.17 2.15 2.20 2.24 2.17 2.10 2.19 1.89 1.52 1.28 1.13 0.94 0.83 0.80 0.82 0.85 0.87 0.86 0.83 0.77
1.85 2.09 2.33 2.66 2.93 3.18 3.32 3.25 3.16 3.12 2.91 2.71 2.67 2.77 2.68 2.47 2.34 2.30 2.24 2.24 2.30 2.29 2.25 2.29 2.32 2.21 2.23 2.25 2.20 2.03 1.79 1.50 1.40 1.28 1.12 1.01 0.92 0.87 0.87 0.88 0.85 0.81 0.81
1.65 1.91 2.07 2.32 2.62 2.82 2.86 2.89 2.92 2.90 2.85 2.78 2.81 2.81 2.79 2.57 2.35 2.28 2.27 2.23 2.21 2.23 2.24 2.28 2.34 2.38 2.29 2.22 2.17 2.10 1.99 1.73 1.51 1.46 1.32 1.20 1.18 1.04 0.94 0.91 0.90 0.88 0.84
1.36 1.63 1.87 1.96 2.18 2.41 2.48 2.55 2.64 2.57 2.60 2.63 2.65 2.73 2.78 2.63 2.38 2.24 2.22 2.17 2.14 2.13 2.14 2.22 2.31 2.39 2.37 2.25 2.13 1.99 1.94 1.85 1.67 1.60 1.46 1.27 1.27 1.17 1.09 1.02 0.97 0.94 0.95